Regional Weather Roundup
Issued by NWS Charleston, SC

Current Version | Previous Version | Graphics & Text | Print | Product List | Glossary On
Versions: 1 2 3 4 5 6 7 8 9 10 11 12 13 14 15 16 17 18 19 20 21 22 23 24 25 26 27 28 29 30 31 32 33 34 35 36 37 38 39 40 41 42 43 44 45 46 47 48 49 50
668 ASUS42 KCHS 240227 RWRCHS REGIONAL WEATHER ROUNDUP NATIONAL WEATHER SERVICE CHARLESTON SC 900 PM EST MON JAN 23 2017 NOTE: "FAIR" INDICATES FEW OR NO CLOUDS BELOW 12,000 FEET WITH NO SIGNIFICANT WEATHER AND/OR OBSTRUCTIONS TO VISIBILITY. NOT ALL STATIONS ARE QUALITY CONTROLLED. USE DATA WITH CAUTION... ESPECIALLY DEWPOINT OBSERVATIONS. SCZ027-030-031-034>040-042>050-240300- ...SOUTHEAST SOUTH CAROLINA... CITY SKY/WX TMP DP RH WIND PRES REMARKS N CHARLESTON PTCLDY 55 50 83 W6 29.45R WATERFRONT PRK N/A 56 52 86 CALM 29.43R MOUNT PLEASANT FAIR 55 52 88 CALM 29.46R JOHNS ISLAND FAIR 55 52 88 W5 29.46R PINOPOLIS N/A 55 52 88 W7 29.36R MONCKS CORNER FAIR 52 48 87 CALM 29.45R SUMMERVILLE FAIR 52 52 100 W5 29.47R BEAUFORT MCAS PTCLDY 59 50 72 W18G26 29.49R BEAUFORT ARPT FAIR 57 50 77 W17G28 29.50R HILTON HEAD IS CLEAR 59 50 72 W12G18 29.52R WALTERBORO CLOUDY 57 54 88 W12 29.49R ALLENDALE CLOUDY 59 50 72 W9G20 29.50R ...SOUTHERN MIDLANDS AND PEE DEE... CITY SKY/WX TMP DP RH WIND PRES REMARKS GEORGETOWN CLOUDY 54 50 87 W5 29.44R KINGSTREE MOCLDY 54 48 82 NW7 29.45R ORANGEBURG CLOUDY 58 50 75 W9 29.46R BARNWELL CLOUDY 59 52 77 W12G18 29.50R AIKEN CLOUDY 54 50 87 W9 29.54R MANNING CLOUDY 54 48 82 NW5 29.44R COLUMBIA CLOUDY 57 49 74 W9 29.46R SUMTER CLOUDY 55 49 81 NW7 29.42R FLORENCE PTCLDY 52 49 89 W7 29.43R MYRTLE BEACH PTCLDY 54 46 76 W8 29.43R N MYRTLE BEACH CLEAR 51 49 92 W6 29.40R $$ GAZ063-065-086>088-099>101-113>116-118-119-134>141-150-240300- ...SOUTHEAST GEORGIA... CITY SKY/WX TMP DP RH WIND PRES REMARKS SAVANNAH ARPT CLEAR 59 47 64 W16G28 29.53R HUNTER AAF CLEAR 58 53 82 W17G25 29.50R FORT STEWART CLEAR 58 47 66 W15G21 29.54R STATESBORO CLEAR 57 50 77 NW13G20 29.56R SYLVANIA CLEAR N/A N/A N/A NW14 29.55R CLAXTON FAIR N/A N/A N/A W12G22 29.58R ...CSRA...CENTRAL AND FAR SOUTHEAST GEORGIA... CITY SKY/WX TMP DP RH WIND PRES REMARKS THOMSON CLEAR 56 49 79 NW8G17 29.60R AUGUSTA-BUSH MOCLDY 58 47 66 W17G23 29.50R AUGUSTA-DANIEL MOCLDY 57 45 64 W14G21 29.52R SWAINSBORO FAIR 55 46 71 MISG 29.58R VIDALIA CLEAR 57 50 77 W9 29.60R EASTMAN FAIR 58 39 50 NW9G22 29.66R HAZLEHURST FAIR 56 51 81 W6 29.61R ALMA CLEAR 56 48 74 W7 29.60R WAYCROSS CLEAR 57 54 89 W6 29.62R JESUP FAIR 59 46 63 NW10G18 29.60R BAXLEY FAIR 57 52 82 W8 29.60R BRUNSWICK CLEAR 59 52 77 W15G22 29.60R SAINT SIMONS CLEAR 58 49 72 W14G29 29.57R $$ SCZ027-028-034-036>038-045-046-048>050-GAZ119-141-240300- ...LAKE AND SUPPLEMENTAL COASTAL OBSERVATIONS... STATION/POSITION TIME TEMP WIND PRES WAVE SWELL AIR SEA DIR/SP/G HT/PER HT/PER/DIR (UTC) (F) (DEG/KT/KT) (MB) (FT/S) (FT/S/D) WINYAH BAY 0145 55 270/ 4 996.0R LAKE MURRAY 0120 56 300/ 3/ 5 997.0R ACE BASIN NERRS 0145 58 270/ 3 998.0R FORT PULASKI 0200 60 59 300/ 23/ 27 999.7 SAPELO ISLAND 0200 59 270/ 13 1001.0 $$ ANZ835-935-AMZ111-154-330-350-352-354-370-450-454-472-240300- ...C-MAN AND BUOY OBSERVATIONS... STATION/POSITION TIME TEMP WIND PRES WAVE SWELL AIR SEA DIR/SP/G HT/PER HT/PER/DIR (UTC) (F) (DEG/KT/KT) (MB) (FT/S) (FT/S/D) BUOY 41004 0150 62 68 280/ 21/ 27 996.0R 8/ 8 7/200/ 8 BUOY 41008 0150 60 60 260/ 21/ 27 999.4R 4/ 5 2/290/14 FOLLY BEACH CMAN 0100 56 240/ 4/ 5 997.0R CAPERS NEARSHORE 0108 57 57 270/ 10/ 14 996.2R FRIPP NEARSHORE 0208 60 58 300/ 19/ 27 998.7R STATION/POSITION TIME TEMP WIND PRES WAVE SWELL AIR SEA DIR/SP/G HT/PER HT/PER/DIR (UTC) (F) (DEG/KT/KT) (MB) (FT/S) (FT/S/D) 5E ST. MARYS GA 0200 62 N/A 3/ 3 FRYING PAN BUOY 0200 60 69 280/ 21/ 27 995.0 BUOY 41025 0150 62 76 300/ 14/ 19 990.6R 7/11 7/130/11 CAPE LOOKOUT NC 0100 55 260/ 8/ 10 991.2R BUOY 41002 0150 69 71 270/ 25/ 31 993.6R 14/10 11/220/10 BUOY 41010 NOT AVBL ST AUGUSTINE FL 0200 61 63 290/ 10/ 13 1004.3R $$

USA.gov is the U.S. government's official web portal to all federal, state and local government web resources and services.